User: anonymous   Login
Location: Fort Frances
(48.6170°N, 93.4170°W)
Time: 00:32:39
(UTC-05:00)
Language:

CZ-2C R/B - Orbit

View from above orbital plane
View from above orbital plane
View from above satellite
View from above satellite

Ground track
Ground track

The orbit data is extracted from the following two-line orbital elements,

1 36089U 09061B   17083.95596201 +.00000110 +00000-0 +39051-4 0  9992
2 36089 098.0521 089.4945 0080975 305.6754 107.9726 14.49647991389412
Epoch (UTC): 24 March 2017 22:56:35
Eccentricity: 0.0080975
inclination: 98.0521°
perigee height: 669 km
apogee height: 784 km
right ascension of ascending node: 89.4945°
argument of perigee: 305.6754°
revolutions per day: 14.49647991
mean anomaly at epoch: 107.9726°
orbit number at epoch: 38941

The dashed part of the orbit path shows where the satellite is in the earth's shadow,  

DLR